Location: Delmar
(42.6220°N, 73.8326°W)
Time: 05:12:40
(UTC+00:00)

USA 215 - Pass Details

Date: 29 October 2020
Orbit: 1102 x 1106 km, 123.0° (Epoch: 23 November)

Event Time Altitude Azimuth Distance (km) Brightness Sun altitude
Exits shadow 23:32:11 20° 48° (NE) 2,305 4.5 -19.1°
Maximum altitude 23:35:03 27° 11° (N) 1,965 4.5 -19.6°
Drops below altitude 10° 23:40:21 10° 317° (NW) 2,965 6.1 -20.6°
Sets 23:43:12 0° 306° (NW) 3,924 7.0 -21.1°
